| time (UTC) | temp C | wind direction | speed KPH | gust KPH | rain 1hr cm | rain 24hr cm | rain mn cm | humidity % | barometer mb |
| 20260510143531 | 18 | 53 | 8.0 | 14.5 | 0.00 | 0.00 | 0.00 | 62 | 1018.2 |
| 20260510142529 | 18 | 51 | 8.0 | 11.3 | 0.00 | 0.00 | 0.00 | 63 | 1018.0 |
| 20260510141528 | 18 | 62 | 8.0 | 16.1 | 0.00 | 0.00 | 0.00 | 63 | 1017.9 |
| 20260510140526 | 18 | 55 | 8.0 | 16.1 | 0.00 | 0.00 | 0.00 | 63 | 1017.8 |
| 20260510135524 | 17 | 57 | 9.7 | 16.1 | 0.00 | 0.00 | 0.00 | 64 | 1017.7 |
| 20260510134522 | 17 | 61 | 11.3 | 25.7 | 0.00 | 0.00 | 0.00 | 64 | 1017.4 |
| 20260510133520 | 17 | 59 | 8.0 | 17.7 | 0.00 | 0.00 | 0.00 | 65 | 1017.2 |
| 20260510132518 | 17 | 44 | 8.0 | 17.7 | 0.00 | 0.00 | 0.00 | 66 | 1017.1 |
| 20260510131517 | 17 | 46 | 9.7 | 19.3 | 0.00 | 0.00 | 0.00 | 66 | 1016.8 |
| 20260510130535 | 17 | 56 | 8.0 | 14.5 | 0.00 | 0.00 | 0.00 | 67 | 1016.8 |
| 20260510125533 | 16 | 53 | 8.0 | 14.5 | 0.00 | 0.00 | 0.00 | 70 | 1016.7 |
| 20260510124531 | 16 | 49 | 6.4 | 14.5 | 0.00 | 0.00 | 0.00 | 72 | 1016.6 |
| 20260510123529 | 16 | 44 | 9.7 | 17.7 | 0.00 | 0.00 | 0.00 | 73 | 1016.3 |
| 20260510122527 | 15 | 68 | 6.4 | 14.5 | 0.00 | 0.00 | 0.00 | 75 | 1016.1 |
| 20260510121525 | 15 | 43 | 6.4 | 14.5 | 0.00 | 0.00 | 0.00 | 76 | 1016.0 |
| 20260510120523 | 15 | 71 | 6.4 | 14.5 | 0.00 | 0.00 | 0.00 | 76 | 1015.7 |
| 20260510115522 | 15 | 43 | 6.4 | 12.9 | 0.00 | 0.00 | 0.00 | 76 | 1015.8 |
| 20260510114520 | 15 | 52 | 8.0 | 11.3 | 0.00 | 0.00 | 0.00 | 75 | 1015.7 |
| 20260510113518 | 15 | 44 | 6.4 | 12.9 | 0.00 | 0.00 | 0.00 | 75 | 1015.2 |
| 20260510112516 | 15 | 74 | 6.4 | 9.7 | 0.00 | 0.00 | 0.00 | 74 | 1015.0 |
| 20260510111534 | 15 | 66 | 6.4 | 12.9 | 0.00 | 0.00 | 0.00 | 73 | 1014.9 |
| 20260510110532 | 15 | 69 | 4.8 | 9.7 | 0.00 | 0.00 | 0.00 | 72 | 1014.8 |
| 20260510105530 | 15 | 83 | 4.8 | 8.0 | 0.00 | 0.00 | 0.00 | 72 | 1014.7 |
| 20260510104528 | 14 | 69 | 6.4 | 9.7 | 0.00 | 0.00 | 0.00 | 76 | 1014.7 |
| 20260510103546 | 13 | 24 | 8.0 | 9.7 | 0.00 | 0.00 | 0.00 | 81 | 1014.8 |
| 20260510102525 | 13 | 60 | 3.2 | 6.4 | 0.00 | 0.00 | 0.00 | 82 | 1014.8 |
| 20260510101523 | 13 | 62 | 1.6 | 4.8 | 0.00 | 0.00 | 0.00 | 82 | 1014.6 |
| 20260510100521 | 14 | 72 | 3.2 | 4.8 | 0.00 | 0.00 | 0.00 | 82 | 1014.2 |
| 20260510095519 | 13 | 80 | 3.2 | 3.2 | 0.00 | 0.00 | 0.00 | 82 | 1014.2 |
| 20260510094537 | 13 | 79 | 3.2 | 3.2 | 0.00 | 0.00 | 0.00 | 81 | 1014.2 |
| 20260510093516 | 14 | 91 | 3.2 | 4.8 | 0.00 | 0.00 | 0.00 | 80 | 1014.2 |
| 20260510092534 | 14 | 54 | 3.2 | 4.8 | 0.00 | 0.00 | 0.00 | 79 | 1013.9 |
| 20260510091532 | 14 | 95 | 3.2 | 3.2 | 0.00 | 0.00 | 0.00 | 78 | 1013.9 |
| 20260510090530 | 15 | 75 | 3.2 | 4.8 | 0.00 | 0.00 | 0.00 | 77 | 1013.8 |
| 20260510085528 | 15 | 71 | 1.6 | 3.2 | 0.00 | 0.00 | 0.00 | 75 | 1013.8 |
| 20260510084526 | 15 | 53 | 3.2 | 4.8 | 0.00 | 0.00 | 0.00 | 76 | 1013.6 |
| 20260510083525 | 15 | 57 | 4.8 | 6.4 | 0.00 | 0.00 | 0.00 | 75 | 1013.4 |
| 20260510082523 | 15 | 71 | 3.2 | 4.8 | 0.00 | 0.00 | 0.00 | 76 | 1013.2 |
| 20260510081541 | 15 | 92 | 3.2 | 3.2 | 0.00 | 0.00 | 0.00 | 75 | 1013.3 |
| 20260510080519 | 15 | 53 | 3.2 | 4.8 | 0.00 | 0.00 | 0.00 | 74 | 1013.9 |
| 20260510075517 | 15 | 61 | 3.2 | 4.8 | 0.00 | 0.00 | 0.00 | 75 | 1013.8 |
| 20260510074535 | 15 | 91 | 3.2 | 3.2 | 0.00 | 0.00 | 0.00 | 73 | 1013.6 |
| 20260510073533 | 15 | 103 | 3.2 | 4.8 | 0.00 | 0.00 | 0.00 | 75 | 1013.5 |
| 20260510072531 | 15 | 64 | 4.8 | 6.4 | 0.00 | 0.00 | 0.00 | 74 | 1013.3 |
| 20260510071549 | 15 | 73 | 1.6 | 3.2 | 0.00 | 0.00 | 0.00 | 73 | 1013.3 |
| 20260510070528 | 15 | 87 | 1.6 | 4.8 | 0.00 | 0.00 | 0.00 | 72 | 1013.3 |
| 20260510065526 | 16 | 92 | 3.2 | 3.2 | 0.00 | 0.00 | 0.00 | 68 | 1013.4 |
| 20260510064524 | 16 | 72 | 1.6 | 3.2 | 0.00 | 0.00 | 0.00 | 67 | 1013.3 |
| 20260510063522 | 16 | 59 | 3.2 | 4.8 | 0.00 | 0.00 | 0.00 | 67 | 1013.3 |
| 20260510062520 | 16 | 55 | 3.2 | 4.8 | 0.00 | 0.00 | 0.00 | 67 | 1013.4 |
| 20260510061518 | 16 | 53 | 3.2 | 4.8 | 0.00 | 0.00 | 0.00 | 66 | 1013.5 |
| 20260510060516 | 16 | 68 | 3.2 | 9.7 | 0.00 | 0.00 | 0.00 | 67 | 1013.5 |
| 20260510055534 | 15 | 59 | 4.8 | 6.4 | 0.00 | 0.00 | 0.00 | 71 | 1013.1 |
| 20260510054533 | 16 | 66 | 3.2 | 4.8 | 0.00 | 0.00 | 0.00 | 71 | 1013.0 |
| 20260510053531 | 16 | 74 | 3.2 | 3.2 | 0.00 | 0.00 | 0.00 | 72 | 1013.1 |
| 20260510052549 | 16 | 92 | 1.6 | 3.2 | 0.00 | 0.00 | 0.00 | 72 | 1013.2 |
| 20260510051527 | 16 | 64 | 1.6 | 3.2 | 0.00 | 0.00 | 0.00 | 71 | 1013.1 |
| 20260510050525 | 16 | 60 | 1.6 | 4.8 | 0.00 | 0.00 | 0.00 | 70 | 1012.8 |
| 20260510045523 | 16 | 119 | 3.2 | 6.4 | 0.00 | 0.00 | 0.00 | 70 | 1012.8 |
| 20260510044522 | 16 | 63 | 1.6 | 3.2 | 0.00 | 0.00 | 0.00 | 70 | 1012.8 |
| 20260510043520 | 16 | 52 | 1.6 | 3.2 | 0.00 | 0.00 | 0.00 | 71 | 1012.8 |
| 20260510042518 | 16 | 55 | 1.6 | 3.2 | 0.00 | 0.00 | 0.00 | 73 | 1012.8 |
| 20260510041516 | 16 | 73 | 1.6 | 3.2 | 0.00 | 0.00 | 0.00 | 71 | 1012.8 |
| 20260510040554 | 16 | 53 | 3.2 | 3.2 | 0.00 | 0.00 | 0.00 | 70 | 1012.4 |
| 20260510035532 | 17 | 56 | 1.6 | 3.2 | 0.00 | 0.00 | 0.00 | 67 | 1012.4 |
| 20260510034551 | 16 | 118 | 4.8 | 6.4 | 0.00 | 0.00 | 0.00 | 64 | 1012.4 |
| 20260510033528 | 17 | 95 | 1.6 | 4.8 | 0.00 | 0.00 | 0.00 | 65 | 1012.5 |
| 20260510032527 | 17 | 75 | 1.6 | 3.2 | 0.00 | 0.00 | 0.00 | 59 | 1012.3 |
| 20260510031525 | 17 | 64 | 1.6 | 3.2 | 0.00 | 0.00 | 0.00 | 57 | 1012.2 |
| 20260510030523 | 18 | 57 | 1.6 | 3.2 | 0.00 | 0.00 | 0.00 | 56 | 1012.1 |
| 20260510025521 | 18 | 57 | 1.6 | 3.2 | 0.00 | 0.00 | 0.00 | 56 | 1012.0 |
| 20260510024519 | 18 | 64 | 1.6 | 3.2 | 0.00 | 0.00 | 0.00 | 55 | 1011.7 |
| 20260510023517 | 18 | 60 | 3.2 | 4.8 | 0.00 | 0.00 | 0.00 | 53 | 1011.3 |
| 20260510022515 | 18 | 58 | 3.2 | 3.2 | 0.00 | 0.00 | 0.00 | 53 | 1011.1 |
| 20260510021554 | 19 | 61 | 1.6 | 3.2 | 0.00 | 0.00 | 0.00 | 52 | 1011.1 |
| 20260510020532 | 20 | 45 | 3.2 | 4.8 | 0.00 | 0.00 | 0.00 | 51 | 1010.9 |
| 20260510015550 | 20 | 65 | 3.2 | 3.2 | 0.00 | 0.00 | 0.00 | 50 | 1010.7 |
| 20260510014608 | 21 | 51 | 1.6 | 3.2 | 0.00 | 0.00 | 0.00 | 49 | 1010.5 |
| 20260510013527 | 21 | 60 | 1.6 | 3.2 | 0.00 | 0.00 | 0.00 | 46 | 1010.3 |
| 20260510012525 | 22 | 64 | 1.6 | 3.2 | 0.00 | 0.00 | 0.00 | 44 | 1010.3 |
| 20260510011522 | 22 | 63 | 1.6 | 3.2 | 0.00 | 0.00 | 0.00 | 42 | 1010.2 |
| 20260510010521 | 23 | 71 | 0.0 | 1.6 | 0.00 | 0.00 | 0.00 | 41 | 1010.1 |
| 20260510005519 | 23 | 64 | 1.6 | 3.2 | 0.00 | 0.00 | 0.00 | 41 | 1009.9 |
| 20260510004537 | 25 | 300 | 0.0 | 3.2 | 0.00 | 0.00 | 0.00 | 38 | 1009.8 |
| 20260510003515 | 25 | 271 | 1.6 | 4.8 | 0.00 | 0.00 | 0.00 | 35 | 1009.8 |
| 20260510002533 | 25 | 257 | 3.2 | 6.4 | 0.00 | 0.00 | 0.00 | 35 | 1009.7 |
| 20260510001532 | 25 | 262 | 3.2 | 6.4 | 0.00 | 0.00 | 0.00 | 35 | 1009.8 |
| 20260510000550 | 25 | 254 | 3.2 | 8.0 | 0.00 | 0.00 | 0.00 | 34 | 1009.9 |
| 20260509235548 | 26 | 270 | 3.2 | 8.0 | 0.00 | 0.00 | 0.00 | 33 | 1009.8 |
| 20260509234546 | 26 | 265 | 3.2 | 8.0 | 0.00 | 0.00 | 0.00 | 34 | 1009.7 |
| 20260509233524 | 26 | 248 | 4.8 | 9.7 | 0.00 | 0.00 | 0.00 | 33 | 1009.8 |
| 20260509232522 | 26 | 262 | 4.8 | 9.7 | 0.00 | 0.03 | 0.00 | 33 | 1009.8 |
| 20260509231540 | 26 | 265 | 4.8 | 8.0 | 0.00 | 0.05 | 0.00 | 32 | 1009.8 |
| 20260509230519 | 26 | 267 | 4.8 | 8.0 | 0.00 | 0.05 | 0.00 | 33 | 1009.7 |
| 20260509225517 | 27 | 334 | 4.8 | 8.0 | 0.00 | 0.05 | 0.00 | 30 | 1009.7 |
| 20260509224535 | 27 | 345 | 3.2 | 4.8 | 0.00 | 0.05 | 0.00 | 28 | 1009.8 |
| 20260509223533 | 28 | 279 | 3.2 | 9.7 | 0.00 | 0.05 | 0.00 | 28 | 1009.7 |
| 20260509222531 | 28 | 281 | 3.2 | 6.4 | 0.00 | 0.05 | 0.00 | 30 | 1009.7 |
| 20260509221529 | 28 | 292 | 3.2 | 6.4 | 0.00 | 0.05 | 0.00 | 30 | 1009.8 |
| 20260509220527 | 28 | 248 | 4.8 | 9.7 | 0.00 | 0.05 | 0.00 | 32 | 1009.9 |
| 20260509215525 | 28 | 248 | 6.4 | 9.7 | 0.00 | 0.05 | 0.00 | 31 | 1009.7 |
| 20260509214524 | 28 | 13 | 3.2 | 8.0 | 0.00 | 0.05 | 0.00 | 30 | 1009.8 |
| 20260509213522 | 28 | 353 | 3.2 | 8.0 | 0.00 | 0.05 | 0.00 | 30 | 1010.0 |
| 20260509212520 | 29 | 308 | 3.2 | 6.4 | 0.00 | 0.05 | 0.00 | 30 | 1009.8 |
| 20260509211518 | 29 | 294 | 3.2 | 6.4 | 0.00 | 0.05 | 0.00 | 30 | 1009.8 |
| 20260509210536 | 28 | 44 | 4.8 | 12.9 | 0.00 | 0.05 | 0.00 | 30 | 1009.9 |
| 20260509205554 | 28 | 297 | 4.8 | 9.7 | 0.00 | 0.05 | 0.00 | 31 | 1010.1 |
| 20260509204532 | 29 | 357 | 4.8 | 14.5 | 0.00 | 0.05 | 0.00 | 30 | 1010.1 |
| 20260509203531 | 29 | 287 | 3.2 | 8.0 | 0.00 | 0.05 | 0.00 | 29 | 1010.0 |
| 20260509202529 | 28 | 254 | 3.2 | 8.0 | 0.00 | 0.05 | 0.00 | 30 | 1010.3 |
| 20260509201527 | 28 | 4 | 4.8 | 9.7 | 0.00 | 0.05 | 0.00 | 30 | 1010.5 |
| 20260509200525 | 28 | 2 | 4.8 | 9.7 | 0.00 | 0.05 | 0.00 | 30 | 1010.6 |
| 20260509195523 | 28 | 271 | 6.4 | 11.3 | 0.00 | 0.05 | 0.00 | 30 | 1010.7 |
| 20260509194521 | 28 | 10 | 4.8 | 9.7 | 0.00 | 0.05 | 0.00 | 29 | 1010.7 |
| 20260509193519 | 28 | 265 | 6.4 | 14.5 | 0.00 | 0.05 | 0.00 | 29 | 1010.8 |
| 20260509192518 | 28 | 276 | 3.2 | 8.0 | 0.00 | 0.05 | 0.00 | 32 | 1010.7 |
| 20260509191536 | 28 | 15 | 4.8 | 12.9 | 0.00 | 0.05 | 0.00 | 31 | 1010.7 |
| 20260509190534 | 28 | 317 | 3.2 | 9.7 | 0.00 | 0.05 | 0.00 | 32 | 1010.8 |
| 20260509185532 | 28 | 318 | 4.8 | 11.3 | 0.00 | 0.05 | 0.00 | 33 | 1010.9 |
| 20260509184550 | 28 | 26 | 6.4 | 12.9 | 0.00 | 0.05 | 0.00 | 30 | 1010.9 |
| 20260509183528 | 28 | 254 | 4.8 | 11.3 | 0.00 | 0.05 | 0.00 | 34 | 1010.8 |
| 20260509182526 | 27 | 286 | 4.8 | 9.7 | 0.00 | 0.05 | 0.00 | 33 | 1010.8 |
| 20260509181525 | 27 | 279 | 4.8 | 11.3 | 0.00 | 0.05 | 0.00 | 32 | 1010.8 |
| 20260509180523 | 27 | 17 | 3.2 | 9.7 | 0.00 | 0.05 | 0.00 | 32 | 1010.9 |
| 20260509175521 | 27 | 284 | 6.4 | 12.9 | 0.00 | 0.05 | 0.00 | 32 | 1010.9 |
| 20260509174519 | 27 | 272 | 4.8 | 8.0 | 0.00 | 0.05 | 0.00 | 36 | 1011.1 |
| 20260509173517 | 27 | 337 | 4.8 | 9.7 | 0.00 | 0.05 | 0.00 | 35 | 1011.0 |
| 20260509172516 | 27 | 51 | 4.8 | 9.7 | 0.00 | 0.05 | 0.00 | 34 | 1011.1 |
| 20260509171534 | 27 | 291 | 1.6 | 8.0 | 0.00 | 0.05 | 0.00 | 40 | 1011.3 |
| 20260509170532 | 27 | 274 | 4.8 | 11.3 | 0.00 | 0.05 | 0.00 | 38 | 1011.4 |
| 20260509165530 | 26 | 12 | 4.8 | 9.7 | 0.00 | 0.05 | 0.00 | 37 | 1011.2 |
| 20260509164528 | 26 | 10 | 3.2 | 8.0 | 0.00 | 0.05 | 0.00 | 40 | 1011.2 |
| 20260509163526 | 26 | 9 | 4.8 | 9.7 | 0.00 | 0.05 | 0.00 | 38 | 1011.3 |
| 20260509162544 | 26 | 32 | 4.8 | 14.5 | 0.00 | 0.05 | 0.00 | 41 | 1011.2 |
| 20260509161523 | 26 | 11 | 4.8 | 11.3 | 0.00 | 0.05 | 0.00 | 41 | 1011.2 |
| 20260509160521 | 25 | 36 | 6.4 | 9.7 | 0.00 | 0.05 | 0.00 | 41 | 1011.2 |
| 20260509155519 | 25 | 44 | 4.8 | 12.9 | 0.00 | 0.05 | 0.00 | 42 | 1011.2 |
| 20260509154517 | 25 | 13 | 1.6 | 6.4 | 0.00 | 0.05 | 0.00 | 49 | 1011.2 |
| 20260509153515 | 25 | 283 | 1.6 | 6.4 | 0.00 | 0.05 | 0.00 | 52 | 1011.0 |
| 20260509152553 | 24 | 19 | 3.2 | 9.7 | 0.00 | 0.05 | 0.00 | 53 | 1011.0 |
| 20260509151532 | 23 | 35 | 4.8 | 11.3 | 0.00 | 0.05 | 0.00 | 55 | 1011.1 |
| 20260509150529 | 22 | 33 | 4.8 | 11.3 | 0.00 | 0.05 | 0.00 | 58 | 1011.2 |
| 20260509145528 | 22 | 256 | 1.6 | 6.4 | 0.00 | 0.05 | 0.00 | 62 | 1011.1 |
| 20260509144546 | 21 | 236 | 4.8 | 8.0 | 0.00 | 0.05 | 0.00 | 63 | 1011.1 |